Regional Weather Roundup
Issued by NWS

Home | Current Version | Previous Version | Text Only | Print | Product List | Glossary On
Versions: 1 2 3 4 5 6 7 8 9 10 11 12 13 14 15 16 17 18 19 20 21 22 23 24 25 26 27 28 29 30 31 32 33 34 35 36 37 38 39 40 41 42 43 44 45 46 47 48 49 50
000
ASUS45 KCYS 182110
RWRWY

WYOMING REGIONAL WEATHER ROUNDUP
NATIONAL WEATHER SERVICE CHEYENNE WY
200 PM MST THU DEC 18 2014

NOTE:  "FAIR" INDICATES FEW OR NO CLOUDS BELOW 12,000 FEET
WITH NO SIGNIFICANT WEATHER AND/OR OBSTRUCTIONS TO VISIBILITY.

WYZ001-182200-
YELLOWSTONE NATIONAL PARK

CITY           SKY/WX    TMP DP  RH WIND       PRES   REMARKS
LK YELLOWSTONE   N/A     24  17  74 VRB6      30.05S WCI  17
W YELLOWSTONE  NOT AVBL

$$
WYZ002>013-054>058-071-098>099-182200-
NORTHERN WYOMING

CITY           SKY/WX    TMP DP  RH WIND       PRES   REMARKS
JACKSON        FLURRIES  25  23  93 CALM      30.07F
CODY           FAIR      37  21  52 W8        29.97F WCI  31
GREYBULL       FAIR      26  17  68 CALM      30.05F
WORLAND        FAIR      19  14  81 CALM      30.03F
SHERIDAN       FAIR      38  23  55 S7        29.94F WCI  33
BUFFALO        FAIR      41  15  35 S10       29.96S
GILLETTE       FAIR      38  22  52 SW10      29.96F WCI  31
HULETT           N/A     36  28  75 MISG        N/A
NEWCASTLE      FAIR      36  27  69 W3        30.00S

$$
WYZ014>020-022>026-101>103-182200-
CENTRAL WYOMING

CITY           SKY/WX    TMP DP  RH WIND       PRES   REMARKS
BIG PINEY      PTSUNNY   32  14  47 W3        30.06F
PINEDALE       FAIR      30  18  59 W10       30.06F WCI  21
DUBOIS         FAIR      32  12  43 W20G25    29.99F WCI  20
LANDER         FAIR      12   6  77 CALM      30.03S
RIVERTON       CLOUDY    14  10  84 CALM      30.04F FOG
CASPER         FAIR      28  19  69 SW16      30.02F WCI  16
DOUGLAS        FAIR      38  20  48 NW13      30.01F WCI  30

$$
WYZ021-027>030-104>119-182200-
SOUTHERN WYOMING

CITY           SKY/WX    TMP DP  RH WIND       PRES   REMARKS
EVANSTON       LGT SNOW  31  22  69 SW8       30.08S WCI  23
KEMMERER       CLOUDY    32  19  59 W14G20    30.07S WCI  22
FORT BRIDGER   CLOUDY    33  21  60 W15       30.11S WCI  23
ROCK SPRINGS   FAIR      32  18  56 W14       30.07S WCI  22
DIXON          CLOUDY    29  23  80 CALM      30.13S
RAWLINS        FAIR      27  20  75 W15       30.06F WCI  15
SARATOGA       FAIR      30  21  69 W13       30.07F WCI  20
LARAMIE        FAIR      29  19  66 NE8       30.00R WCI  21
CHEYENNE       FAIR      40  13  33 W16       29.99S WCI  31
TORRINGTON     FAIR      31  24  75 CALM      30.00F
PINE BLUFFS    FAIR      41  21  45 N15       30.01S

$$



USA.gov is the U.S. government's official web portal to all federal, state and local government web resources and services.